Дата Пункты Температура Давл., мм. Влажн., % Ветер Погодные явления
Воздуха Воды Направл. Скорость
30.11.17 08:00 Одесса 8.0 7.0 759 94 Ю-В 3 08 часов
30.11.17 05:00 Одесса 7.0 7.0 759 89 Ю-В 6 05 часов
30.11.17 02:00 Одесса 5.0 7.0 759 87 В 1 02 часа
29.11.17 11:00 Одесса 5.0 7.0 760 85 З 1 23 часа
29.11.17 08:00 Одесса 5.0 7.0 759 88 Ю-З 1 20 часов
29.11.17 05:00 Одесса 6.0 7.0 758 90 Ю-З 1 17 часов
29.11.17 02:00 Одесса 6.0 7.0 757 86 Ю 2 14 часов
29.11.17 11:00 Одесса 8.0 7.0 757 85 Ю 1 11 часов
29.11.17 08:00 Одесса 7.0 7.0 756 91 Ю 1 08 часов
29.11.17 05:00 Одесса 7.0 7.0 756 97 Ю 1 05 часов
29.11.17 02:00 Одесса 6.0 7.0 755 98 В 7 02 часа
28.11.17 11:00 Одесса 5.0 7.0 756 96 В 8 23 часа
28.11.17 08:00 Одесса 5.0 7.0 756 94 В 8 20 часов
28.11.17 05:00 Одесса 6.0 7.0 756 94 В 8 17 часов
28.11.17 02:00 Одесса 5.0 7.0 756 93 В 9 14 часов
28.11.17 11:00 Одесса 4.0 7.0 758 92 В 7 11 часов
28.11.17 08:00 Одесса 4.0 7.0 758 88 В 6 08 часов
28.11.17 05:00 Одесса 5.0 7.0 758 86 В 6 05 часов
28.11.17 02:00 Одесса 5.0 7.0 759 88 В 10 02 часа
27.11.17 11:00 Одесса 5.0 -20.0 759 92 В 7 23 часа
Количество строк
1 2 3 4 5 6 7 8 9 10
Page 6 of 305